Preview of NWS' New Version of Forecast
This preview is not operational and should not be used for support decisions.

Regional Weather Roundup (RWR)

Issued by National Weather Service (NWS)

                            
000
ASUS43 KLSX 161957
RWRMO 

WEATHER SUMMARY FOR MISSOURI
NATIONAL WEATHER SERVICE SPRINGFIELD MO
300 PM CDT MON SEP 16 2019

NOTE: "FAIR" INDICATES FEW OR NO CLOUDS BELOW 12,000 FEET WITH NO
       SIGNIFICANT WEATHER AND/OR OBSTRUCTIONS TO VISIBILITY.
       CURRENT SKY AND/OR WEATHER CONDITIONS ARE NOT AVAILABLE FOR
       CHILLICOTHE AND FARMINGTON.

MOZ001>031-035>038-043-044-053-054-162100-
...NORTHERN AND WESTERN MISSOURI...
  
CITY           SKY/WX    TMP DP  RH WIND       PRES   REMARKS
KANSAS CTY INT PTSUNNY   88  73  61 SW6       30.05F HX  95           
LEE'S SUMMIT   SUNNY     90  68  48 SW9       30.06F HX  94           
ST JOSEPH      SUNNY     91  70  49 S9        30.02F HX  96           
CHILLICOTHE      N/A     90  72  55 CALM      30.05F HX  97           
     
$$
MOZ066>068-077>081-088>096-101>105-162100-
...SOUTHWEST MISSOURI...
  
CITY           SKY/WX    TMP DP  RH WIND       PRES   REMARKS
SPRINGFIELD    SUNNY     94  64  37 S5        30.07F HX  95           
JOPLIN         SUNNY     91  71  51 CALM      30.07F HX  97           
BRANSON        MOSUNNY   91  63  38 CALM      30.10F HX  92           
               
$$
MOZ032>034-039>042-045>050-055>058-069>072-162100-
...CENTRAL MISSOURI...  
  
CITY           SKY/WX    TMP DP  RH WIND       PRES   REMARKS
COLUMBIA       NOT AVBL                                               
JEFFERSON CITY SUNNY     93  66  40 VRB3      30.05F HX  96           
ROLLA          PTSUNNY   91  67  44 CALM      30.09F HAZE    HX  94   
SEDALIA        SUNNY     90  66  45 VRB3      30.07F HX  92           
WARRENSBURG    MOSUNNY   90  68  48 CALM      30.06F HX  93           
               
$$
MOZ051-052-059>065-162100-
...EAST CENTRAL MISSOURI...
  
CITY           SKY/WX    TMP DP  RH WIND       PRES   REMARKS
ST LOUIS INTL  MOSUNNY   95  69  42 W8        30.05F HX 100           
                   
$$
MOZ072>076-082>087-097>100-106>115-162100-
...SOUTH CENTRAL AND SOUTHEAST MISSOURI...
  
CITY           SKY/WX    TMP DP  RH WIND       PRES   REMARKS
CAPE GIRARDEAU FAIR      97  66  36 W6        30.03F HX 100           
POPLAR BLUFF   FAIR      95  65  37 CALM      30.03F HX  97           
WEST PLAINS    SUNNY     92  63  38 SW3       30.10F HX  93           
                                       
$$